User: anonymous   Login
Location: Unspecified
(0.0000°N, 0.0000°E)
Time: 22:28:14
(UTC+00:00)
Language:

Tiangong 1 - Orbit

View from above orbital plane
View from above orbital plane
View from above satellite
View from above satellite

Ground track
Ground track

The orbit data is extracted from the following two-line orbital elements,

1 37820U 11053A   17142.91098380 +.00033874 +00000-0 +19577-3 0  9990
2 37820 042.7611 354.6593 0019626 260.6195 310.5872 15.77679600323979
Epoch (UTC): 22 May 2017 21:51:49
Eccentricity: 0.0019626
inclination: 42.7611°
perigee height: 324 km
apogee height: 350 km
right ascension of ascending node: 354.6593°
argument of perigee: 260.6195°
revolutions per day: 15.77679600
mean anomaly at epoch: 310.5872°
orbit number at epoch: 32397

The dashed part of the orbit path shows where the satellite is in the earth's shadow,  

DLR